Погода в Гриндельвальде

Швейцария     46°37′26″N   8°02′04″E
темп.,
°C
ветер,
м/с
пор.,
м/с
влажн.,
%
обл.,
%
осадки,
мм/ч
давл.,
гПа
погр.,
м
13 мая, чт
чт1323:00−5сз128965 0.0 101420
02:00−8с229247 0.0 101513
05:00−9с128653 0.0 101514
08:00−4ссз229366 0.1 1011192
11:00−2ссз329698 0.7 1008466
14:00−2ссз3298100 2.7 1008243
17:00−3ссз3396100 2.6 1010367
20:00−3сз2298100 4.9 1010164
14 мая, пт
пт1423:00−8с229554 0.7 101513
02:00−11ссв12885 0.7 101711
05:00−11ссв12781 0.0 101611
08:00−5с12835 0.0 1012103
11:00−3ссз118358 0.0 1011581
14:00−2ссз219099 0.6 1010388
17:00−2сз229699 1.3 1010360
20:00−3сз229796 2.9 1013162
15 мая, сб
сб1523:00−5зсз129699 0.5 101629
02:00−6сз2297100 0.8 101651
05:00−11юв129884 0.0 101912
08:00−3ю1278100 0.0 1012108
11:00−2ю3389100 0.1 1011363
14:00−2ю2398100 0.8 1011343
17:00−1ююз2299100 2.0 1010250
20:00−2ююз2399100 4.8 1010150
16 мая, вс
вс1623:00−2юз2298100 2.6 101154
02:00−3зюз2396100 3.7 101160
05:00−2з2299100 0.5 1010110
08:00−1юз3399100 1.6 1010175
11:000зюз33100100 0.0 1009210
14:00+1юз4499100 0.1 1008198
17:000юз34100100 1.2 1008162
20:00−1юз3399100 1.8 1011157
17 мая, пн
пн1723:00−5з2285100 0.1 101310
02:00−3зюз339993 0.8 1012114
05:00−3зюз239647 0.4 101150
08:00−3зюз339745 0.4 1012133
11:00−2з229568 0.1 1011462
14:00−2зсз339672 0.4 1011506
17:00−2зсз339048 1.5 1012442
20:00−4зсз339282 1.8 101399